Volver al catálogo

FENGYUN 1C DEB

ActivoSSO
NORAD 31692·DEBRIS·🇨🇳 China

Lanzado May 10, 1999 desde Taiyuan Satellite Launch Center

Loading…

Próximos Pases (próximas 24 horas)

TLE

EnvejeciendoSource: Space-Track

Época: Sep 6, 2026, 07:00 UTC

1 31692U 99025CDA 26249.29174249  .00002928  00000-0  13178-2 0  9990
2 31692  99.1806 260.6533 0086755  43.7634 317.0375 14.21123170620061

Sigue FENGYUN 1C DEB en tiempo real con AllMySat

Download on the App Store